SCP
5 4 3 1 1 0 0 0 0 0 0 0 0 0 1 0 0 0 0 0 0 0 0 0 0 0 0 0 0 1 0 0 0 0 0 0 0 0 0 0 0 0 0
4 3 2 1 1 0 0 0 0 0 0 0 0 1 1 1 0 0 0 0 0 0 0 0 0 0 0 0 1 1 1 1 1 0 0 0 0 0 0 0 0 0 0
3 3 2 2 1 1 1 1 0 0 0 1 1 1 1 1 1 0 0 0 0 0 0 1 1 1 0 1 1 1 1 1 1 1 1 1 1 0 0 0 0 0 0
3 3 3 3 2 1 1 1 1 1 1 1 1 1 1 1 1 1 1 0 0 0 0 1 1 1 1 1 1 1 1 1 1 1 1 1 1 1 0 0 0 0 0
4 4 4 4 3 2 1 1 1 1 1 1 1 1 1 1 1 1 1 1 0 0 0 0 1 1 0 0 1 1 1 1 1 1 1 1 1 1 1 0 0 0 0
5 4 4 4 3 2 2 2 2 1 1 1 2 2 2 1 1 1 1 1 1 0 0 1 1 0 0 0 0 1 1 1 1 1 1 1 1 1 1 1 1 1 1
4 4 4 4 3 2 2 2 2 2 2 2 2 2 2 1 1 0 0 0 1 1 1 1 1 1 0 0 0 0 0 1 1 1 1 1 1 1 1 1 1 1 1
3 3 3 3 2 2 3 3 3 3 3 3 3 3 3 2 1 0 0 0 1 1 1 1 1 1 0 0 1 0 0 1 1 1 1 1 1 1 1 1 1 1 1
2 2 2 2 2 3 3 3 3 3 3 3 3 3 3 2 1 1 0 1 1 1 1 1 1 1 0 0 1 0 0 0 1 1 0 0 0 1 1 1 1 1 1
2 3 3 3 3 3 3 3 3 4 4 4 4 3 3 2 2 1 1 1 2 2 2 2 1 1 0 0 1 1 0 0 1 1 1 1 1 1 1 1 1 2 2
3 3 3 3 3 4 4 4 4 4 4 4 4 4 3 2 1 1 0 1 2 2 2 3 2 2 1 0 0 1 1 1 1 1 1 1 1 1 1 1 1 2 2
4 4 4 3 3 4 5 5 5 6 6 5 5 4 3 3 2 1 0 0 1 2 2 2 2 1 1 0 0 0 1 1 1 2 2 1 1 2 2 2 2 2 2
6 6 5 5 6 6 6 6 7 7 7 7 6 5 4 3 3 2 1 0 0 1 2 2 1 1 0 0 0 0 1 1 2 2 2 2 2 2 2 2 2 2 2
7 7 9 10 11 10 9 8 8 8 8 8 7 5 4 3 2 2 2 1 1 1 1 1 1 1 1 1 1 1 1 2 2 3 2 2 2 2 2 2 3 2 2
10 11 13 15 16 14 11 9 9 8 8 8 7 5 4 3 2 2 2 1 1 1 1 1 1 1 2 3 3 3 3 3 3 3 3 3 2 2 2 3 3 3 3
13 15 17 19 19 17 14 10 9 8 7 6 5 4 3 2 1 1 1 1 1 1 1 1 1 2 3 3 4 5 5 5 4 4 3 3 3 3 3 3 3 4 4
13 14 16 18 19 17 14 11 9 7 5 4 3 2 2 1 1 0 0 0 0 0 1 1 1 1 2 3 4 5 6 6 5 5 4 3 3 3 3 3 3 4 4
8 9 10 12 13 13 12 11 9 7 5 3 1 1 1 1 0 0 0 0 0 0 1 1 1 1 1 1 3 4 5 5 5 5 4 3 3 2 2 2 3 4 4
4 5 5 6 7 8 8 8 8 7 6 3 1 1 0 0 0 0 0 0 0 0 1 1 1 1 0 1 2 3 4 5 5 4 4 3 3 2 2 2 3 3 4
4 4 4 4 4 5 5 5 5 5 5 4 3 1 0 0 0 0 0 0 0 0 0 0 0 0 0 1 1 2 3 3 4 4 3 3 2 2 2 2 3 4 4
4 5 5 5 5 4 3 3 3 3 3 3 3 2 1 0 1 1 0 0 0 0 0 0 0 0 0 0 1 1 2 3 3 4 4 3 2 2 2 3 3 4 5
4 6 6 6 5 4 4 3 3 3 2 2 2 1 0 0 0 1 1 1 0 0 0 0 0 0 0 0 0 1 1 2 3 4 4 3 2 2 3 3 3 4 5
4 5 6 6 5 4 3 3 3 2 1 0 0 0 0 0 0 0 0 0 0 0 0 0 0 0 0 0 0 0 1 1 2 3 3 3 3 3 3 3 3 3 4
3 4 5 5 4 3 3 3 2 1 0 0 0 0 0 0 0 0 0 0 0 0 0 0 0 0 0 0 0 0 0 1 1 2 2 2 2 2 2 2 2 2 3
4 4 4 4 4 3 3 2 1 0 0 0 0 0 0 0 0 0 0 0 0 0 0 0 0 0 0 0 0 0 0 0 1 1 1 1 1 1 1 1 1 1 1
4 4 4 4 4 3 2 2 1 0 0 0 0 0 0 0 0 0 0 0 0 1 1 1 1 0 0 0 0 0 0 0 0 0 1 1 1 1 1 1 1 1 1
Wind_Speed
6 5 4 4 4 4 3 3 3 3 3 3 2 2 2 2 2 2 2 2 2 2 2 2 1 2 1 1 2 2 2 3 3 1 0 1 1 2 2 2 2 2 2
6 5 5 4 4 4 4 3 3 3 3 3 3 3 2 2 2 3 2 2 2 2 1 2 1 2 2 1 2 2 2 2 3 3 1 1 1 1 1 2 2 2 2
6 6 6 5 5 5 4 4 4 4 3 3 3 3 2 2 2 3 3 2 2 1 1 1 1 2 1 1 2 2 2 2 3 4 2 1 1 1 2 2 2 2 2
7 7 7 6 6 5 5 4 4 4 4 3 3 3 2 2 2 3 3 3 2 2 1 1 1 2 2 2 2 2 3 3 3 3 3 1 1 1 1 1 1 1 1
7 7 7 6 5 5 5 4 4 4 4 3 3 2 2 2 2 3 3 3 3 2 2 1 1 2 2 2 2 3 4 3 3 3 2 1 1 1 1 1 1 1 1
8 7 6 6 6 5 5 5 4 4 3 3 3 3 2 2 3 4 4 3 3 3 2 1 2 2 3 3 3 3 4 4 4 3 2 3 2 2 2 2 1 1 0
8 7 7 7 6 6 6 5 5 4 4 4 3 3 3 2 4 5 5 4 3 2 2 1 1 2 3 2 3 3 2 2 4 4 4 4 3 4 3 3 2 2 1
8 7 7 7 7 6 6 5 5 4 4 3 3 4 3 3 4 5 6 4 3 2 1 2 2 1 1 2 3 2 2 1 1 2 3 3 3 3 4 3 3 2 1
8 8 8 8 8 7 6 6 5 4 4 4 3 4 4 3 4 6 6 3 2 1 1 1 2 1 1 3 3 2 1 1 1 2 2 1 1 2 4 3 3 2 1
8 8 7 7 8 8 7 6 4 4 4 4 3 3 4 3 4 6 7 4 3 2 1 1 1 2 2 3 3 3 2 1 1 2 2 2 2 2 3 4 4 3 2
6 6 6 7 7 7 6 5 5 4 4 4 4 3 3 3 4 6 6 4 4 3 2 1 1 2 3 3 3 3 3 2 1 1 1 1 1 1 1 1 2 3 3
6 6 6 6 6 6 6 5 5 6 5 4 4 3 2 3 4 5 7 6 5 4 3 2 2 4 4 3 2 3 3 3 2 1 1 1 0 0 0 1 1 2 2
6 6 6 6 5 6 6 6 5 5 5 4 4 4 3 2 2 4 6 7 6 4 2 3 3 3 3 2 2 4 4 3 2 2 1 1 1 1 0 0 1 1 1
6 6 5 5 5 5 5 5 6 6 6 6 5 5 3 3 3 3 3 3 4 3 2 2 3 3 2 2 2 2 2 2 3 2 2 1 1 1 1 1 1 0 0
5 5 5 5 5 4 4 4 5 5 6 7 6 5 5 5 5 7 6 4 4 3 3 2 1 1 1 1 1 1 1 2 2 2 2 2 2 1 1 1 1 1 1
5 5 4 4 4 4 4 2 0 2 4 6 6 6 4 5 7 8 8 7 7 7 4 3 3 3 3 3 3 2 2 2 3 2 2 2 2 2 1 1 1 2 2
6 5 4 5 5 5 5 4 3 1 1 4 6 7 7 7 8 8 7 7 7 8 4 4 4 4 3 3 3 3 3 3 3 3 3 3 3 3 2 2 2 2 2
5 6 5 4 5 5 5 5 5 4 3 2 2 5 7 7 7 7 7 6 3 4 4 4 5 4 4 4 4 4 3 3 3 3 3 3 3 3 3 3 3 3 3
4 4 4 4 4 4 4 4 4 5 4 3 2 2 4 5 5 7 8 5 5 5 5 4 4 4 4 4 4 4 4 4 4 4 4 4 4 4 3 3 3 4 4
4 6 5 4 4 4 4 4 4 4 4 4 4 4 4 4 3 4 5 5 5 5 5 5 5 5 5 5 4 4 4 4 5 4 4 4 4 4 4 5 4 4 4
4 5 6 5 4 4 4 4 4 4 4 4 4 5 7 6 5 6 6 6 6 6 6 6 5 5 5 5 5 5 6 5 5 4 4 4 4 4 4 4 4 4 4
4 4 4 4 4 4 4 4 4 5 5 5 3 4 7 5 5 5 5 5 5 5 5 5 5 5 5 5 5 6 6 6 5 5 5 5 5 5 5 4 4 4 3
3 4 3 3 4 4 4 4 4 4 4 4 4 4 5 5 5 5 5 5 4 4 4 5 5 5 5 5 5 6 6 7 6 6 6 5 5 5 5 5 5 5 4
3 4 3 3 3 4 4 4 4 4 4 4 4 5 5 5 5 5 5 4 4 4 5 5 5 7 8 6 5 5 6 6 6 6 8 7 7 6 5 5 5 6 5
3 4 4 4 4 4 4 4 4 4 4 4 4 4 4 5 5 5 5 4 5 5 6 6 5 6 8 9 7 7 7 7 7 6 6 7 7 7 6 7 5 5 5
3 3 3 3 3 3 3 3 4 4 4 4 4 4 4 5 5 5 5 4 5 5 5 5 6 7 7 7 8 8 6 6 7 7 6 6 7 6 7 6 7 6 5
Wind_Direction
182 179 168 166 161 153 153 158 157 149 143 142 140 133 125 117 114 112 108 103 102 88 93 114 116 114 124 130 125 125 127 132 142 140 87 69 65 56 51 66 73 72 81
177 170 169 162 154 157 161 162 152 149 148 146 140 134 137 133 130 130 128 111 108 106 106 115 122 121 114 130 130 135 143 149 150 153 142 99 71 55 68 81 70 71 75
169 167 166 166 166 171 169 163 153 149 144 140 141 145 148 147 143 145 141 130 122 120 122 131 139 126 125 134 138 139 142 135 139 149 148 131 97 79 73 71 69 51 71
170 171 175 179 179 176 168 162 161 158 155 156 156 159 162 155 151 150 140 130 118 101 92 103 123 143 161 154 140 140 136 129 131 142 144 140 124 102 109 94 69 48 49
170 178 184 177 170 164 162 165 162 164 168 164 158 158 159 161 167 155 148 141 131 112 82 74 91 112 121 132 141 146 144 144 143 146 153 149 153 162 171 154 134 101 60
173 182 178 168 165 168 168 164 160 164 163 156 162 165 172 183 165 158 152 144 138 133 120 78 74 82 94 104 116 131 148 160 163 163 178 185 202 195 175 166 159 146 195
176 178 175 171 169 174 173 163 169 173 165 165 171 170 178 184 162 155 154 147 145 147 142 126 101 76 92 100 96 97 104 143 175 179 187 205 201 198 182 183 182 183 201
177 180 177 172 174 171 166 170 175 172 173 179 182 179 173 186 166 157 150 144 134 136 142 146 135 103 106 113 105 92 80 73 162 174 191 212 215 198 191 189 181 160 131
180 185 181 174 171 171 175 179 178 170 173 177 174 174 175 187 172 163 150 140 136 147 155 146 153 154 140 129 126 123 90 26 63 104 117 115 140 164 162 148 151 155 186
188 185 177 172 173 176 180 176 172 171 177 170 171 181 182 186 180 169 159 157 160 170 151 136 155 166 152 144 151 154 164 231 78 68 63 56 77 103 138 171 177 177 184
180 171 167 168 170 167 165 163 163 166 167 172 176 184 183 185 180 174 171 172 179 178 178 196 203 174 168 162 163 178 192 174 132 112 84 66 74 93 113 147 183 185 190
161 165 169 166 168 164 159 163 167 163 170 180 182 188 200 198 188 184 180 182 178 180 197 204 196 178 176 173 176 174 154 136 127 119 106 86 92 113 137 168 180 189 210
159 167 167 167 168 166 171 175 175 172 175 186 189 199 208 205 198 191 189 188 182 184 194 190 185 174 162 158 162 160 154 149 152 161 184 215 223 218 184 166 114 89 77
164 167 164 166 168 169 174 186 186 184 185 185 193 202 204 199 197 183 183 187 187 187 186 175 164 152 144 143 138 153 169 173 175 185 196 204 189 166 168 172 178 171 228
158 166 165 168 172 172 178 188 194 199 193 189 196 193 192 206 210 192 181 185 189 187 156 135 131 134 151 161 166 168 171 170 176 182 187 192 189 186 190 181 176 184 212
164 170 172 174 179 178 173 163 155 206 202 200 196 190 203 200 181 184 187 186 180 164 152 177 190 189 191 196 198 199 198 199 198 190 192 197 200 204 201 195 202 208 222
175 178 177 180 180 181 181 181 184 159 160 191 198 194 190 182 179 180 182 177 171 161 169 192 200 202 203 206 208 207 210 206 196 194 197 201 203 204 202 209 214 219 226
181 184 181 182 185 189 189 190 186 185 194 206 197 192 186 180 180 179 166 149 170 187 198 202 207 206 206 208 212 212 210 201 197 199 199 201 201 199 203 211 217 223 227
186 189 184 183 184 189 187 187 188 191 193 193 180 181 180 171 173 178 168 179 193 202 207 211 216 214 210 209 212 210 205 203 201 200 201 202 202 200 208 214 218 221 224
194 199 191 182 182 184 183 186 191 196 195 198 204 197 171 163 178 186 193 201 204 209 211 212 214 216 213 210 207 207 207 206 203 207 207 207 206 206 213 216 218 221 225
195 197 192 187 191 191 191 194 197 197 200 207 214 204 186 188 198 201 203 207 212 215 216 216 213 211 212 208 205 207 208 211 209 209 210 211 211 211 214 215 218 222 226
192 194 192 194 193 191 194 197 199 200 202 207 213 200 195 200 200 206 210 215 218 219 216 211 214 214 211 207 205 205 207 211 212 209 210 212 213 214 213 213 213 215 218
189 193 192 193 192 191 196 199 200 202 206 208 206 200 199 210 210 214 218 219 217 218 215 211 215 219 215 211 210 207 209 212 213 210 209 211 212 212 213 215 214 214 218
186 190 191 193 193 195 200 204 204 204 206 208 209 206 205 210 214 218 221 220 215 215 214 212 216 218 215 213 213 213 217 218 212 211 211 212 212 213 213 214 215 216 220
187 191 193 197 198 201 202 202 203 205 207 208 211 213 208 209 214 218 219 217 216 217 219 219 218 218 219 219 219 220 216 210 211 212 209 210 212 211 212 214 215 219 221
186 190 194 195 199 202 203 207 208 208 211 215 216 216 213 214 215 216 215 214 217 220 222 224 224 222 221 222 224 220 207 201 199 200 204 206 209 211 211 214 215 215 216